Precipitable_Water
0.93 1.01 1.04 1.00 0.71 0.70 0.62 0.68 0.91 0.82 0.79 0.88 0.87 0.78 0.71 0.76 0.64 0.49 0.91 0.96 0.96 0.91 1.03 1.12 1.29 1.20 1.24 1.26 1.28 1.28 1.27 1.30 1.33 1.40 1.51 1.64 1.76 1.92 1.99 1.98 1.89 1.76 1.68 1.64 1.62 1.54 1.51 1.42 1.31
0.97 0.91 0.94 0.82 0.56 0.48 0.57 0.70 0.69 0.81 0.89 0.89 0.87 0.82 0.77 0.67 0.87 0.77 0.78 0.81 0.81 0.79 0.82 0.97 1.04 1.05 1.10 1.14 1.15 1.18 1.19 1.17 1.17 1.20 1.25 1.33 1.43 1.55 1.67 1.79 1.91 1.91 1.91 1.83 1.73 1.69 1.63 1.60 1.54
0.88 0.90 0.62 0.56 0.52 0.46 0.50 0.65 0.68 0.75 0.87 0.85 0.78 0.81 0.69 0.64 0.70 0.68 0.73 0.74 0.75 0.72 0.77 0.87 0.91 1.08 1.00 0.95 1.00 1.07 1.12 1.12 1.11 1.08 1.10 1.12 1.17 1.28 1.37 1.48 1.61 1.74 1.85 1.93 1.92 1.80 1.69 1.61 1.63
0.63 0.69 0.65 0.47 0.41 0.50 0.54 0.57 0.63 0.66 0.72 0.78 0.76 0.61 0.61 0.65 0.62 0.64 0.66 0.67 0.64 0.61 0.66 0.64 0.84 0.85 0.82 0.83 0.88 0.87 0.89 0.94 0.98 1.11 1.03 1.03 1.02 1.05 1.06 1.17 1.32 1.48 1.56 1.65 1.77 1.88 1.88 1.80 1.64
0.61 0.63 0.43 0.39 0.42 0.49 0.53 0.57 0.59 0.53 0.57 0.60 0.64 0.49 0.50 0.58 0.60 0.58 0.57 0.56 0.52 0.50 0.54 0.59 0.61 0.64 0.69 0.71 0.72 0.76 0.82 0.88 0.87 0.85 0.96 1.05 0.99 0.96 0.95 0.94 0.97 1.04 1.16 1.36 1.53 1.67 1.78 1.89 1.91
0.48 0.60 0.37 0.34 0.41 0.49 0.53 0.55 0.51 0.50 0.52 0.54 0.51 0.46 0.42 0.51 0.50 0.51 0.47 0.42 0.44 0.44 0.47 0.48 0.51 0.55 0.57 0.60 0.62 0.67 0.72 0.76 0.75 0.83 0.88 0.89 0.95 0.97 1.02 0.95 0.86 0.86 0.91 0.97 1.09 1.32 1.49 1.67 1.79
0.51 0.49 0.38 0.39 0.39 0.43 0.48 0.55 0.46 0.42 0.39 0.37 0.45 0.32 0.30 0.34 0.37 0.39 0.39 0.40 0.41 0.41 0.40 0.40 0.39 0.38 0.38 0.40 0.43 0.50 0.56 0.58 0.64 0.66 0.74 0.78 0.81 0.84 0.90 0.85 0.93 0.89 0.78 0.85 0.90 0.94 1.05 1.26 1.40
0.60 0.52 0.38 0.41 0.38 0.39 0.48 0.47 0.42 0.34 0.27 0.35 0.37 0.28 0.27 0.33 0.37 0.39 0.39 0.38 0.37 0.33 0.29 0.27 0.26 0.25 0.25 0.25 0.27 0.31 0.32 0.35 0.40 0.47 0.50 0.60 0.63 0.60 0.66 0.76 0.73 0.76 0.84 0.82 0.82 0.85 0.85 0.88 0.96
0.65 0.40 0.34 0.38 0.40 0.41 0.44 0.37 0.34 0.31 0.31 0.31 0.30 0.31 0.32 0.35 0.36 0.32 0.28 0.25 0.24 0.23 0.23 0.23 0.22 0.22 0.22 0.21 0.22 0.24 0.24 0.24 0.24 0.27 0.29 0.32 0.38 0.48 0.54 0.63 0.72 0.82 0.74 0.85 0.85 0.83 0.80 0.79 0.76
0.45 0.37 0.37 0.45 0.43 0.34 0.35 0.33 0.30 0.28 0.26 0.26 0.27 0.30 0.30 0.28 0.25 0.22 0.21 0.20 0.19 0.19 0.19 0.20 0.20 0.21 0.21 0.21 0.21 0.21 0.21 0.20 0.21 0.21 0.22 0.23 0.26 0.27 0.35 0.49 0.58 0.64 0.73 0.74 0.78 0.77 0.73 0.70 0.65
0.35 0.28 0.34 0.34 0.35 0.33 0.28 0.27 0.29 0.26 0.24 0.26 0.26 0.26 0.27 0.23 0.21 0.20 0.19 0.19 0.18 0.19 0.20 0.21 0.20 0.21 0.23 0.23 0.25 0.26 0.26 0.26 0.24 0.23 0.22 0.21 0.21 0.24 0.26 0.26 0.33 0.45 0.55 0.62 0.67 0.67 0.66 0.63 0.61
0.26 0.32 0.32 0.32 0.34 0.31 0.26 0.27 0.26 0.27 0.28 0.28 0.28 0.27 0.23 0.21 0.19 0.17 0.16 0.16 0.17 0.18 0.19 0.21 0.23 0.25 0.26 0.27 0.28 0.30 0.30 0.30 0.28 0.27 0.27 0.25 0.24 0.24 0.21 0.23 0.25 0.31 0.40 0.46 0.56 0.62 0.64 0.64 0.62
0.24 0.28 0.32 0.33 0.31 0.28 0.29 0.28 0.28 0.27 0.29 0.30 0.28 0.23 0.19 0.17 0.16 0.17 0.17 0.18 0.19 0.20 0.22 0.25 0.29 0.32 0.33 0.34 0.36 0.37 0.38 0.38 0.37 0.35 0.34 0.32 0.30 0.25 0.23 0.24 0.25 0.25 0.34 0.41 0.47 0.53 0.58 0.63 0.62
0.29 0.29 0.29 0.30 0.29 0.30 0.28 0.29 0.30 0.29 0.31 0.28 0.22 0.18 0.16 0.15 0.16 0.17 0.17 0.18 0.21 0.24 0.28 0.31 0.33 0.36 0.37 0.39 0.40 0.41 0.43 0.44 0.43 0.42 0.41 0.39 0.37 0.34 0.32 0.28 0.27 0.27 0.29 0.37 0.42 0.43 0.52 0.55 0.58
0.32 0.28 0.29 0.29 0.29 0.29 0.31 0.27 0.27 0.29 0.28 0.21 0.18 0.17 0.15 0.16 0.17 0.16 0.18 0.22 0.26 0.30 0.32 0.34 0.37 0.42 0.44 0.45 0.47 0.48 0.49 0.48 0.47 0.46 0.46 0.45 0.43 0.42 0.38 0.35 0.30 0.32 0.30 0.33 0.38 0.42 0.43 0.48 0.53
0.27 0.29 0.21 0.29 0.31 0.31 0.30 0.23 0.26 0.26 0.21 0.18 0.17 0.16 0.14 0.15 0.15 0.17 0.22 0.27 0.31 0.32 0.36 0.42 0.47 0.50 0.51 0.51 0.51 0.53 0.52 0.52 0.50 0.50 0.51 0.50 0.49 0.48 0.45 0.41 0.37 0.35 0.31 0.31 0.34 0.39 0.40 0.39 0.43
0.23 0.18 0.21 0.24 0.31 0.30 0.28 0.22 0.24 0.23 0.18 0.16 0.17 0.14 0.13 0.13 0.15 0.20 0.27 0.31 0.35 0.40 0.46 0.50 0.56 0.56 0.56 0.58 0.57 0.56 0.55 0.55 0.55 0.55 0.54 0.52 0.52 0.52 0.51 0.48 0.45 0.40 0.36 0.32 0.33 0.35 0.41 0.39 0.37
0.19 0.20 0.22 0.21 0.26 0.27 0.24 0.21 0.22 0.18 0.16 0.15 0.16 0.13 0.13 0.12 0.16 0.24 0.30 0.35 0.44 0.50 0.53 0.58 0.59 0.59 0.61 0.62 0.61 0.59 0.58 0.58 0.59 0.58 0.58 0.57 0.57 0.55 0.54 0.53 0.52 0.48 0.43 0.36 0.33 0.32 0.38 0.41 0.36
0.24 0.23 0.20 0.21 0.26 0.23 0.21 0.20 0.20 0.16 0.15 0.15 0.15 0.13 0.12 0.13 0.20 0.28 0.33 0.44 0.49 0.54 0.58 0.60 0.60 0.61 0.63 0.62 0.60 0.59 0.57 0.60 0.61 0.61 0.62 0.61 0.60 0.59 0.57 0.55 0.54 0.53 0.48 0.44 0.37 0.32 0.35 0.37 0.39
0.23 0.21 0.19 0.20 0.24 0.21 0.19 0.18 0.20 0.17 0.14 0.15 0.15 0.13 0.12 0.15 0.22 0.29 0.37 0.49 0.52 0.56 0.59 0.60 0.61 0.62 0.65 0.66 0.66 0.66 0.65 0.66 0.66 0.66 0.65 0.65 0.63 0.61 0.59 0.57 0.55 0.55 0.53 0.48 0.45 0.36 0.32 0.37 0.41
0.21 0.18 0.16 0.16 0.20 0.20 0.18 0.17 0.14 0.13 0.14 0.15 0.14 0.13 0.13 0.17 0.24 0.30 0.41 0.49 0.53 0.56 0.56 0.56 0.57 0.56 0.60 0.65 0.66 0.65 0.68 0.68 0.66 0.67 0.67 0.69 0.68 0.66 0.62 0.59 0.58 0.56 0.55 0.52 0.49 0.43 0.36 0.36 0.41
0.16 0.18 0.17 0.16 0.14 0.10 0.18 0.09 0.12 0.12 0.12 0.12 0.12 0.12 0.13 0.19 0.28 0.34 0.44 0.50 0.56 0.53 0.53 0.54 0.51 0.52 0.56 0.59 0.54 0.53 0.54 0.57 0.64 0.67 0.69 0.70 0.69 0.67 0.65 0.62 0.60 0.58 0.57 0.54 0.52 0.50 0.42 0.38 0.36
0.14 0.16 0.19 0.16 0.12 0.13 0.13 0.11 0.09 0.11 0.09 0.09 0.11 0.12 0.14 0.22 0.28 0.36 0.45 0.52 0.58 0.49 0.47 0.48 0.46 0.47 0.50 0.47 0.50 0.50 0.49 0.52 0.63 0.67 0.68 0.69 0.67 0.66 0.64 0.62 0.59 0.57 0.57 0.57 0.54 0.51 0.48 0.41 0.38
0.16 0.16 0.16 0.17 0.13 0.09 0.10 0.09 0.08 0.08 0.09 0.10 0.11 0.12 0.15 0.24 0.29 0.38 0.48 0.55 0.58 0.44 0.42 0.43 0.40 0.40 0.42 0.45 0.49 0.49 0.48 0.49 0.53 0.63 0.65 0.66 0.63 0.62 0.62 0.62 0.61 0.60 0.58 0.57 0.56 0.54 0.51 0.46 0.41
0.14 0.11 0.07 0.07 0.05 0.05 0.10 0.08 0.08 0.10 0.11 0.12 0.10 0.13 0.17 0.26 0.30 0.37 0.47 0.53 0.53 0.39 0.39 0.38 0.37 0.35 0.40 0.44 0.49 0.52 0.52 0.53 0.54 0.61 0.64 0.62 0.60 0.57 0.58 0.60 0.60 0.58 0.58 0.58 0.58 0.55 0.53 0.50 0.46
0.12 0.10 0.07 0.05 0.05 0.05 0.09 0.06 0.07 0.12 0.13 0.12 0.12 0.14 0.19 0.25 0.32 0.39 0.49 0.54 0.40 0.37 0.34 0.33 0.33 0.34 0.40 0.47 0.52 0.56 0.57 0.58 0.60 0.64 0.66 0.65 0.61 0.57 0.58 0.61 0.60 0.58 0.58 0.60 0.60 0.58 0.56 0.54 0.50
0.11 0.09 0.11 0.08 0.09 0.07 0.07 0.08 0.11 0.12 0.10 0.09 0.12 0.13 0.20 0.26 0.32 0.41 0.51 0.50 0.38 0.33 0.31 0.31 0.31 0.33 0.41 0.47 0.53 0.57 0.61 0.62 0.63 0.66 0.68 0.67 0.63 0.56 0.58 0.60 0.56 0.56 0.57 0.58 0.59 0.58 0.56 0.55 0.54
0.13 0.12 0.07 0.08 0.05 0.04 0.05 0.06 0.06 0.09 0.08 0.09 0.12 0.13 0.21 0.28 0.33 0.44 0.52 0.42 0.35 0.31 0.31 0.31 0.31 0.35 0.38 0.38 0.50 0.54 0.58 0.62 0.64 0.67 0.66 0.68 0.62 0.56 0.54 0.52 0.52 0.52 0.54 0.56 0.56 0.57 0.58 0.56 0.55
0.12 0.10 0.09 0.10 0.08 0.04 0.04 0.05 0.11 0.10 0.08 0.09 0.12 0.14 0.22 0.29 0.35 0.46 0.49 0.36 0.32 0.31 0.30 0.31 0.31 0.30 0.30 0.32 0.37 0.47 0.56 0.61 0.61 0.64 0.66 0.67 0.61 0.55 0.51 0.49 0.48 0.49 0.50 0.51 0.53 0.55 0.55 0.54 0.54
0.15 0.12 0.10 0.06 0.05 0.08 0.08 0.06 0.12 0.10 0.09 0.11 0.13 0.16 0.24 0.31 0.40 0.48 0.37 0.34 0.30 0.29 0.29 0.30 0.30 0.31 0.30 0.31 0.34 0.42 0.55 0.59 0.60 0.63 0.65 0.63 0.57 0.56 0.52 0.50 0.48 0.47 0.47 0.48 0.48 0.48 0.50 0.51 0.50
Wind_Speed
2 2 2 3 2 4 5 5 6 6 6 8 8 7 5 8 9 10 13 15 16 17 17 19 19 20 20 20 21 21 21 21 21 21 21 20 19 18 18 20 21 23 23 23 24 23 23 23 22
2 1 2 2 2 2 4 6 9 9 4 5 8 8 9 8 10 10 13 15 17 19 20 20 21 23 22 22 23 23 23 23 23 23 23 23 23 23 23 22 21 22 22 24 25 26 25 25 24
2 1 1 2 2 3 3 6 6 8 8 8 7 10 11 12 11 13 15 17 19 21 22 23 25 24 25 26 27 26 27 27 27 26 26 26 26 26 27 26 25 24 23 23 23 26 27 27 27
1 1 2 3 5 6 3 8 8 8 11 12 9 11 11 13 14 15 17 20 21 23 25 27 27 29 31 31 30 31 31 30 31 31 31 30 30 29 28 28 28 28 27 27 26 26 25 26 28
0 1 2 3 4 2 5 7 11 10 9 12 12 12 13 16 17 19 21 23 24 26 29 30 32 33 34 35 35 36 36 36 36 36 35 35 35 34 32 32 31 30 30 29 29 29 29 27 25
1 0 1 1 2 3 5 8 12 12 12 12 13 13 16 20 20 22 23 24 27 30 32 34 35 36 38 39 40 39 40 40 40 40 40 39 38 37 37 36 35 34 33 32 31 31 31 30 30
0 2 1 1 1 5 8 10 13 13 15 17 15 16 17 20 21 23 27 29 32 35 37 38 39 40 41 42 42 43 43 44 44 44 43 43 42 42 41 41 39 38 38 37 36 35 34 34 32
1 1 2 5 5 6 11 10 13 14 16 16 18 19 21 24 26 29 31 34 36 37 39 40 42 42 43 44 44 45 46 46 47 47 47 48 47 47 46 46 46 45 44 42 41 39 38 36 36
2 3 5 6 7 8 11 11 14 15 15 18 18 19 23 26 30 32 33 35 37 39 41 43 45 46 47 47 48 48 48 49 50 49 49 50 50 50 50 49 49 48 47 47 45 43 41 40 38
3 4 7 9 8 9 11 13 14 17 18 20 21 23 26 28 30 33 35 37 40 43 44 45 47 47 48 49 49 49 49 49 49 50 51 52 52 51 52 53 52 51 51 50 48 48 46 45 43
6 5 5 8 5 8 11 15 17 17 20 20 21 24 27 29 32 34 37 40 44 45 45 45 44 44 43 43 43 44 45 46 47 48 49 50 52 53 53 53 54 53 53 53 53 52 51 49 47
5 7 7 8 10 13 15 16 17 18 19 20 23 26 28 31 33 37 40 44 45 45 43 40 41 40 41 41 40 40 40 41 42 43 45 46 48 49 52 52 54 55 54 54 55 54 54 52 51
6 7 9 8 9 12 12 15 16 18 19 21 24 26 30 34 37 40 44 45 43 40 38 38 38 39 38 36 39 39 40 41 40 39 39 40 42 45 46 49 51 52 54 54 54 55 54 54 53
7 6 6 10 11 13 13 17 19 20 20 23 25 29 34 37 40 44 45 42 37 35 35 35 36 38 36 38 35 36 37 36 36 38 39 39 40 39 41 43 44 49 51 54 54 54 53 54 54
5 9 11 11 12 13 12 19 17 19 21 23 27 32 37 39 43 45 42 36 32 34 35 36 37 38 37 35 36 36 36 35 34 34 36 37 37 39 38 39 41 42 45 50 52 55 56 57 55
12 11 13 13 13 15 19 17 17 19 21 25 30 35 39 42 44 42 35 32 32 35 36 37 38 39 38 37 36 36 34 33 33 33 34 33 35 36 37 39 39 40 41 42 47 51 54 57 57
14 14 14 14 15 16 18 16 17 20 22 27 32 38 41 44 43 35 31 32 34 35 37 36 40 37 35 37 36 34 33 32 33 34 33 32 33 35 37 38 39 39 40 41 41 45 50 54 56
14 15 14 15 15 16 14 14 16 20 24 30 35 39 43 44 37 30 31 33 34 35 35 39 37 36 37 35 32 31 31 31 32 32 33 34 35 36 37 38 40 39 39 40 40 41 43 49 51
14 13 14 17 13 14 12 13 15 21 26 32 37 42 44 40 30 30 33 34 32 34 38 38 36 36 35 33 31 31 31 31 31 31 32 32 32 32 33 33 36 39 39 41 41 41 42 44 47
14 13 17 15 13 14 12 14 17 23 29 34 40 43 43 34 30 32 33 33 33 35 37 37 36 36 35 33 33 33 33 33 32 31 31 31 32 33 32 32 33 36 38 38 38 39 39 40 42
16 13 16 14 13 15 11 17 20 26 31 36 40 42 39 31 31 33 33 32 34 36 37 36 37 37 37 36 35 34 34 34 33 31 31 32 32 33 31 32 32 32 35 36 36 34 35 35 37
17 17 19 12 11 14 15 18 22 29 32 38 40 42 36 30 30 33 32 33 35 36 37 37 38 39 38 38 37 37 36 35 33 31 31 32 32 32 31 31 30 30 31 35 35 35 34 34 35
17 22 15 12 11 14 16 19 25 29 35 41 42 41 33 30 31 32 32 33 35 37 38 38 39 39 39 40 39 39 38 37 34 30 29 31 32 31 30 29 27 27 28 31 33 35 36 36 35
24 18 16 14 15 16 20 18 23 30 37 41 41 38 31 30 32 32 32 34 35 37 38 38 40 40 40 41 41 41 40 38 34 30 28 30 30 30 30 27 26 25 25 28 31 32 33 33 34
25 19 16 16 18 16 20 22 22 29 36 39 42 38 31 30 32 33 33 34 36 38 39 40 41 41 41 42 43 42 40 36 32 29 27 29 29 29 28 26 24 23 22 24 26 28 31 33 34
22 20 17 16 17 19 22 19 22 30 38 40 38 35 30 31 32 33 33 35 36 39 39 41 42 42 42 43 43 41 38 34 30 28 27 28 28 29 28 25 22 20 18 17 21 25 25 28 31
21 21 19 18 19 20 21 24 24 37 41 41 40 36 29 30 32 33 33 35 36 39 40 42 43 42 42 43 41 38 36 33 30 29 27 27 27 28 27 19 17 16 14 13 15 20 23 24 25
20 22 20 21 21 21 22 23 26 39 44 43 41 36 30 30 32 32 32 35 37 39 40 42 42 42 43 42 38 35 35 34 31 28 27 27 25 24 23 19 17 15 11 9 10 14 18 21 23
21 22 22 19 20 18 23 23 29 37 42 41 40 35 30 30 32 31 33 34 36 39 40 41 42 43 42 40 35 34 34 34 32 28 27 26 24 23 21 19 17 14 12 9 7 8 13 15 19
19 20 21 19 22 21 20 24 28 38 41 39 37 33 29 29 31 30 33 34 36 38 39 40 42 42 41 39 36 33 34 34 32 29 27 26 24 23 21 18 17 15 13 12 9 8 9 10 14
Wind_Direction
329 316 316 349 12 46 19 355 348 337 340 2 5 4 13 341 314 298 301 307 312 314 315 318 316 313 312 308 305 302 301 299 297 293 291 288 287 288 283 277 272 265 263 261 259 256 254 252 250
330 334 355 355 22 17 7 1 17 358 346 347 358 346 340 329 322 311 308 310 311 312 314 312 312 310 307 307 303 301 298 296 294 291 289 285 282 281 280 279 277 271 266 262 259 256 254 252 250
306 302 347 1 20 5 360 338 334 12 6 332 328 338 324 318 317 307 308 310 311 311 312 310 310 306 306 304 301 298 295 292 290 289 287 285 282 280 277 275 274 271 268 266 262 258 254 253 250
285 349 49 69 66 9 6 340 328 320 336 338 325 327 321 319 308 307 308 309 309 309 309 309 306 302 301 299 297 296 293 291 287 285 282 281 280 279 276 275 272 270 268 265 263 260 257 255 252
77 85 54 64 34 22 8 351 356 348 324 338 313 314 315 312 311 308 308 308 307 308 307 305 304 301 299 297 295 292 290 288 286 283 282 278 276 275 273 271 270 269 268 265 262 260 257 255 253
87 75 93 342 18 320 343 344 351 349 339 314 320 312 314 311 306 308 308 308 307 307 306 305 303 300 298 296 293 290 289 286 285 282 279 277 275 273 270 269 267 265 265 264 262 259 257 255 254
89 314 318 176 280 318 327 318 335 339 329 331 313 312 310 315 313 308 307 306 306 306 305 304 303 300 298 296 293 290 288 286 283 281 278 275 274 272 269 267 266 264 263 262 260 259 257 254 253
305 332 330 327 300 306 320 321 333 326 326 313 312 312 310 309 308 307 306 306 306 306 305 304 303 301 299 296 294 291 288 286 283 280 277 274 273 271 269 266 264 263 262 260 258 257 256 254 252
320 324 317 299 295 298 304 308 325 325 328 328 317 313 310 310 311 310 309 308 308 307 306 305 304 302 299 297 294 291 288 286 283 280 278 275 272 270 268 266 264 263 261 258 256 254 254 253 251
327 316 304 313 313 314 319 319 317 316 321 321 319 317 316 315 315 314 312 310 310 308 307 305 304 302 300 297 294 292 289 287 284 280 278 275 273 270 267 265 264 262 260 257 255 253 252 252 250
329 316 317 326 333 335 331 327 313 313 319 318 318 316 316 316 317 316 314 312 311 310 309 308 307 305 304 302 299 296 293 290 286 283 280 276 273 269 267 266 263 261 259 256 254 253 252 250 249
338 329 312 296 307 313 315 315 323 324 320 320 320 318 318 320 319 318 317 315 314 313 312 312 311 310 309 305 304 302 299 296 293 288 283 280 275 270 269 265 263 260 258 256 254 252 250 248 247
341 317 326 325 330 325 324 324 324 325 322 322 323 324 324 322 321 321 319 317 316 316 316 316 316 316 314 311 309 305 302 297 294 291 289 285 279 276 272 267 264 260 257 256 254 251 249 246 245
325 336 332 323 323 319 326 321 317 321 323 327 327 327 327 326 324 322 321 319 318 319 320 320 319 320 316 314 312 310 309 306 300 293 289 286 283 281 276 271 267 262 259 255 252 250 247 245 244
359 335 330 317 316 317 330 332 326 324 329 330 329 329 328 326 325 324 323 321 322 323 323 322 320 319 317 315 313 312 310 309 307 302 296 290 284 282 278 274 270 265 261 255 253 250 247 245 244
333 330 324 310 316 317 326 323 327 328 333 331 330 329 329 328 326 326 327 327 326 326 326 324 323 321 317 314 313 312 310 309 308 306 304 297 289 282 279 276 271 266 263 260 254 250 248 245 244
335 325 331 332 320 327 328 324 327 330 334 332 329 330 330 330 330 331 333 332 330 330 329 329 327 326 323 319 315 313 311 308 308 308 306 302 296 290 282 275 273 269 263 260 257 252 249 247 245
327 333 334 337 330 338 339 330 326 334 336 333 333 333 334 334 334 335 336 336 336 336 336 333 332 330 326 324 319 317 315 313 310 308 307 304 300 295 287 279 271 267 264 258 257 255 251 246 243
331 338 342 332 329 337 336 332 326 338 337 338 338 339 337 335 337 339 339 340 340 341 341 341 338 336 335 331 327 323 320 317 314 312 310 309 306 302 295 287 276 266 262 259 256 255 252 247 243
346 343 342 337 341 340 335 334 332 337 338 339 340 339 338 339 340 341 342 343 344 343 344 345 345 343 341 337 331 325 320 318 315 313 312 311 309 305 300 293 284 271 261 257 255 253 250 246 242
346 349 338 326 344 347 343 338 340 336 339 341 341 339 340 341 341 343 344 345 345 345 345 345 344 342 341 339 335 331 325 318 314 312 312 314 312 309 304 298 290 277 262 256 252 250 244 244 242
346 343 334 330 340 334 329 334 338 339 340 343 341 342 341 341 342 343 344 345 345 346 345 345 344 343 342 339 337 334 331 328 319 311 311 314 314 312 308 303 295 283 266 254 249 247 246 243 242
343 341 344 348 346 346 342 345 339 341 342 344 344 343 342 342 343 344 344 344 344 345 344 344 344 343 342 340 338 335 331 328 325 317 313 316 316 315 312 307 300 290 271 256 249 246 245 244 243
351 356 360 358 352 349 344 344 342 346 343 344 345 344 342 342 344 344 344 345 345 345 345 345 344 343 342 341 339 336 334 330 327 322 319 320 321 319 316 310 304 295 280 259 250 246 243 242 240
4 6 355 352 353 342 347 353 344 344 345 344 343 344 342 343 344 345 345 346 346 347 347 346 345 344 344 343 342 340 337 335 331 328 325 326 326 325 322 315 310 300 287 264 250 245 243 242 240
3 9 7 346 348 342 347 350 345 348 346 345 345 344 343 345 346 346 347 348 348 349 349 348 347 346 346 345 345 345 344 343 340 337 333 331 331 331 328 321 315 309 291 275 250 244 244 242 240
359 6 357 356 352 352 348 349 347 350 347 347 347 346 345 347 348 348 349 350 350 351 351 350 349 348 347 347 348 350 351 350 347 344 341 339 339 341 344 342 334 328 312 279 257 247 245 243 242
11 1 360 0 359 349 348 351 346 348 348 349 349 349 347 348 349 350 352 352 353 353 353 352 351 350 349 348 350 353 354 356 354 352 350 348 347 350 356 357 355 352 345 323 261 257 248 245 244
2 4 4 5 2 354 349 349 352 348 349 349 349 350 350 350 351 353 354 355 356 356 356 355 355 354 355 356 357 358 360 0 359 358 357 359 360 1 3 3 3 2 359 352 322 275 255 249 243
6 5 5 5 350 356 355 348 354 349 351 351 350 352 352 352 353 355 356 357 357 359 360 360 0 2 3 5 6 5 4 3 5 5 6 8 9 8 6 4 6 5 2 354 341 304 270 256 252